QFA851 YMML-YSSY

Flight info

Callsign QFA851
Flight time 1h 4m
Altitude 35000
Route ML H129 DOSEL Y59 RIVET
Aircraft B738/M-SDE2E3FGHIRWXY/LB1

Departure

Time 2026-04-24 09:49
Airport Melbourne Airport (YMML)

Arrival

Time 2026-04-24 10:54
Airport Sydney Kingsford Smith International Airport (YSSY)
Time Latitude Longitude Altitude Speed Heading
2026-04-24 09:14 -37.66651 144.84992 401 ft 0 kts 262°
2026-04-24 09:37 -37.66649 144.85016 396 ft 4 kts 263°
2026-04-24 09:37 -37.66646 144.85049 397 ft 3 kts 270°
2026-04-24 09:37 -37.66648 144.85067 395 ft 2 kts 304°
2026-04-24 09:37 -37.66657 144.85075 397 ft 2 kts 347°
2026-04-24 09:38 -37.66667 144.85078 396 ft 2 kts 352°
2026-04-24 09:38 -37.66669 144.85078 396 ft 0 kts 353°
2026-04-24 09:41 -37.66646 144.85073 400 ft 5 kts 349°
2026-04-24 09:41 -37.66609 144.85065 402 ft 5 kts 352°
2026-04-24 09:41 -37.66574 144.85060 403 ft 5 kts 351°
2026-04-24 09:41 -37.66542 144.85041 401 ft 5 kts 317°
2026-04-24 09:42 -37.66532 144.85000 405 ft 5 kts 270°
2026-04-24 09:42 -37.66536 144.84957 405 ft 5 kts 260°
2026-04-24 09:42 -37.66540 144.84915 405 ft 5 kts 262°
2026-04-24 09:42 -37.66545 144.84867 405 ft 7 kts 259°
2026-04-24 09:43 -37.66576 144.84810 404 ft 10 kts 212°
2026-04-24 09:43 -37.66633 144.84750 401 ft 10 kts 244°
2026-04-24 09:43 -37.66649 144.84647 397 ft 14 kts 262°
2026-04-24 09:43 -37.66664 144.84520 397 ft 15 kts 261°
2026-04-24 09:44 -37.66677 144.84403 394 ft 13 kts 262°
2026-04-24 09:44 -37.66690 144.84292 389 ft 11 kts 261°
2026-04-24 09:44 -37.66704 144.84218 395 ft 8 kts 242°
2026-04-24 09:44 -37.66757 144.84186 393 ft 10 kts 175°
2026-04-24 09:45 -37.66834 144.84200 390 ft 12 kts 171°
2026-04-24 09:45 -37.66921 144.84217 387 ft 6 kts 173°
2026-04-24 09:45 -37.66922 144.84217 387 ft 0 kts 172°
2026-04-24 09:45 -37.66945 144.84221 386 ft 10 kts 172°
2026-04-24 09:46 -37.67026 144.84236 384 ft 13 kts 172°
2026-04-24 09:46 -37.67117 144.84253 382 ft 14 kts 172°
2026-04-24 09:46 -37.67212 144.84270 381 ft 14 kts 171°
2026-04-24 09:46 -37.67301 144.84287 379 ft 13 kts 172°
2026-04-24 09:47 -37.67398 144.84306 377 ft 16 kts 171°
2026-04-24 09:47 -37.67517 144.84328 374 ft 18 kts 171°
2026-04-24 09:47 -37.67646 144.84353 370 ft 19 kts 171°
2026-04-24 09:47 -37.67756 144.84368 369 ft 12 kts 184°
2026-04-24 09:48 -37.67833 144.84321 365 ft 14 kts 230°
2026-04-24 09:48 -37.67863 144.84202 360 ft 14 kts 261°
2026-04-24 09:48 -37.67877 144.84065 356 ft 19 kts 269°
2026-04-24 09:48 -37.67787 144.83952 359 ft 23 kts 348°
2026-04-24 09:49 -37.67364 144.83873 371 ft 105 kts 352°
2026-04-24 09:49 -37.66385 144.83685 512 ft 171 kts 351°
2026-04-24 09:49 -37.65184 144.83439 1654 ft 165 kts 351°
2026-04-24 09:49 -37.64153 144.83228 3205 ft 142 kts 351°
2026-04-24 09:50 -37.63160 144.83019 3994 ft 154 kts 349°
2026-04-24 09:50 -37.61986 144.82766 4350 ft 189 kts 349°
2026-04-24 09:50 -37.60585 144.82493 4606 ft 220 kts 351°
2026-04-24 09:50 -37.58941 144.82557 4960 ft 252 kts
2026-04-24 09:51 -37.57238 144.83307 5712 ft 265 kts 21°
2026-04-24 09:51 -37.55554 144.84330 6613 ft 272 kts 24°
2026-04-24 09:51 -37.53845 144.85415 7496 ft 275 kts 25°
2026-04-24 09:51 -37.52129 144.86498 8488 ft 276 kts 24°
2026-04-24 09:52 -37.50420 144.87558 9421 ft 279 kts 24°
2026-04-24 09:52 -37.48668 144.88630 10325 ft 283 kts 24°
2026-04-24 09:52 -37.46822 144.89750 10665 ft 307 kts 24°
2026-04-24 09:52 -37.44813 144.90977 10863 ft 334 kts 27°
2026-04-24 09:53 -37.42953 144.92839 11316 ft 351 kts 48°
2026-04-24 09:53 -37.41480 144.95327 12075 ft 357 kts 53°
2026-04-24 09:53 -37.40047 144.97895 12807 ft 362 kts 53°
2026-04-24 09:53 -37.38596 145.00518 13529 ft 367 kts 54°
2026-04-24 09:54 -37.37125 145.03167 14251 ft 373 kts 54°
2026-04-24 09:54 -37.35644 145.05818 14930 ft 376 kts 54°
2026-04-24 09:54 -37.34129 145.08512 15666 ft 378 kts 54°
2026-04-24 09:54 -37.32598 145.11223 16394 ft 381 kts 53°
2026-04-24 09:55 -37.31053 145.13949 17090 ft 385 kts 53°
2026-04-24 09:55 -37.29495 145.16694 17794 ft 388 kts 53°
2026-04-24 09:55 -37.27920 145.19465 18504 ft 391 kts 53°
2026-04-24 09:55 -37.27810 145.19659 18547 ft 391 kts 53°
2026-04-24 09:56 -37.26293 145.22326 19134 ft 395 kts 53°
2026-04-24 09:56 -37.25675 145.23413 19335 ft 397 kts 53°
2026-04-24 09:56 -37.24686 145.25150 19666 ft 400 kts 53°
2026-04-24 09:56 -37.23061 145.28002 20192 ft 404 kts 53°
2026-04-24 09:57 -37.21411 145.30896 20741 ft 409 kts 53°
2026-04-24 09:57 -37.19747 145.33814 21288 ft 412 kts 53°
2026-04-24 09:57 -37.18094 145.36709 21802 ft 416 kts 53°
2026-04-24 09:57 -37.16401 145.39668 22271 ft 420 kts 53°
2026-04-24 09:58 -37.14690 145.42656 22756 ft 424 kts 53°
2026-04-24 09:58 -37.12956 145.45679 23238 ft 427 kts 53°
2026-04-24 09:58 -37.11215 145.48713 23715 ft 431 kts 53°
2026-04-24 09:58 -37.09459 145.51771 24152 ft 434 kts 53°
2026-04-24 09:59 -37.07686 145.54856 24529 ft 437 kts 53°
2026-04-24 09:59 -37.05903 145.57956 24907 ft 441 kts 53°
2026-04-24 09:59 -37.04105 145.61081 25279 ft 444 kts 53°
2026-04-24 09:59 -37.02293 145.64227 25644 ft 447 kts 53°
2026-04-24 10:00 -37.00465 145.67397 26002 ft 450 kts 53°
2026-04-24 10:00 -36.98626 145.70583 26366 ft 453 kts 53°
2026-04-24 10:00 -36.96793 145.73757 26695 ft 456 kts 53°
2026-04-24 10:00 -36.94930 145.76978 27024 ft 459 kts 53°
2026-04-24 10:01 -36.93052 145.80222 27353 ft 462 kts 54°
2026-04-24 10:01 -36.91158 145.83492 27677 ft 465 kts 54°
2026-04-24 10:01 -36.89253 145.86778 27987 ft 468 kts 54°
2026-04-24 10:01 -36.87332 145.90087 28316 ft 471 kts 54°
2026-04-24 10:02 -36.85404 145.93407 28629 ft 474 kts 54°
2026-04-24 10:02 -36.83463 145.96744 28938 ft 476 kts 54°
2026-04-24 10:02 -36.81512 146.00096 29223 ft 479 kts 54°
2026-04-24 10:02 -36.79546 146.03470 29522 ft 481 kts 54°
2026-04-24 10:03 -36.77568 146.06860 29840 ft 483 kts 54°
2026-04-24 10:03 -36.75589 146.10250 30144 ft 485 kts 54°
2026-04-24 10:03 -36.73596 146.13659 30427 ft 487 kts 54°
2026-04-24 10:03 -36.71594 146.17080 30686 ft 489 kts 54°
2026-04-24 10:04 -36.69591 146.20501 31012 ft 488 kts 54°
2026-04-24 10:04 -36.67595 146.23906 31425 ft 485 kts 54°
2026-04-24 10:04 -36.65608 146.27290 31848 ft 483 kts 54°
2026-04-24 10:04 -36.63627 146.30663 32201 ft 482 kts 54°
2026-04-24 10:05 -36.61648 146.34027 32507 ft 482 kts 54°
2026-04-24 10:05 -36.59668 146.37393 32839 ft 481 kts 54°
2026-04-24 10:05 -36.57693 146.40745 33190 ft 480 kts 54°
2026-04-24 10:05 -36.55717 146.44095 33529 ft 480 kts 54°
2026-04-24 10:06 -36.53743 146.47438 33842 ft 479 kts 54°
2026-04-24 10:06 -36.49796 146.54115 34484 ft 478 kts 54°
2026-04-24 10:06 -36.47850 146.57401 34749 ft 478 kts 54°
2026-04-24 10:07 -36.45877 146.60730 35060 ft 476 kts 54°
2026-04-24 10:07 -36.43917 146.64033 35369 ft 475 kts 54°
2026-04-24 10:07 -36.41952 146.67343 35470 ft 478 kts 54°
2026-04-24 10:08 -36.37983 146.74019 35470 ft 479 kts 54°
2026-04-24 10:08 -36.34041 146.80633 35467 ft 474 kts 54°
2026-04-24 10:09 -36.30125 146.87194 35478 ft 474 kts 55°
2026-04-24 10:09 -36.26185 146.93782 35479 ft 476 kts 55°
2026-04-24 10:10 -36.22906 146.99256 35475 ft 475 kts 55°
2026-04-24 10:10 -36.18328 147.06884 35471 ft 474 kts 55°
2026-04-24 10:11 -36.15035 147.12358 35481 ft 472 kts 55°
2026-04-24 10:11 -36.10491 147.19897 35470 ft 468 kts 55°
2026-04-24 10:12 -36.07256 147.25259 35476 ft 467 kts 55°
2026-04-24 10:12 -36.03375 147.31682 35486 ft 467 kts 55°
2026-04-24 10:13 -35.99451 147.38165 35490 ft 473 kts 55°
2026-04-24 10:13 -35.95514 147.44655 35480 ft 471 kts 55°
2026-04-24 10:14 -35.91589 147.51111 35482 ft 469 kts 55°
2026-04-24 10:14 -35.87669 147.57553 35486 ft 471 kts 55°
2026-04-24 10:15 -35.83754 147.63973 35491 ft 471 kts 55°
2026-04-24 10:15 -35.79812 147.70416 35490 ft 471 kts 55°
2026-04-24 10:16 -35.75859 147.76864 35485 ft 470 kts 55°
2026-04-24 10:16 -35.71919 147.83285 35493 ft 470 kts 56°
2026-04-24 10:17 -35.67979 147.89693 35500 ft 470 kts 56°
2026-04-24 10:17 -35.64022 147.96118 35496 ft 471 kts 56°
2026-04-24 10:18 -35.60068 148.02526 35501 ft 471 kts 56°
2026-04-24 10:18 -35.56105 148.08937 35501 ft 471 kts 56°
2026-04-24 10:19 -35.52145 148.15332 35514 ft 471 kts 56°
2026-04-24 10:19 -35.48150 148.21711 35515 ft 471 kts 54°
2026-04-24 10:20 -35.43748 148.27625 35478 ft 476 kts 45°
2026-04-24 10:20 -35.41209 148.30241 35362 ft 479 kts 39°
2026-04-24 10:20 -35.38491 148.32621 35164 ft 477 kts 43°
2026-04-24 10:20 -35.36229 148.35511 35499 ft 459 kts 56°
2026-04-24 10:21 -35.34437 148.38717 35728 ft 456 kts 65°
2026-04-24 10:21 -35.31761 148.45864 35600 ft 468 kts 68°
2026-04-24 10:22 -35.28566 148.52872 35520 ft 472 kts 60°
2026-04-24 10:22 -35.24968 148.59549 35520 ft 467 kts 62°
2026-04-24 10:23 -35.21541 148.66294 35532 ft 468 kts 62°
2026-04-24 10:23 -35.18126 148.73013 35521 ft 469 kts 62°
2026-04-24 10:24 -35.14656 148.79757 35513 ft 468 kts 62°
2026-04-24 10:24 -35.11172 148.86477 35526 ft 468 kts 62°
2026-04-24 10:25 -35.07677 148.93201 35510 ft 469 kts 62°
2026-04-24 10:25 -35.04178 148.99918 35518 ft 468 kts 62°
2026-04-24 10:26 -35.00677 149.06630 35520 ft 468 kts 62°
2026-04-24 10:26 -34.97176 149.13330 35512 ft 468 kts 62°
2026-04-24 10:27 -34.93699 149.19970 35513 ft 468 kts 62°
2026-04-24 10:27 -34.90192 149.26658 35514 ft 468 kts 62°
2026-04-24 10:28 -34.86684 149.33333 35515 ft 468 kts 61°
2026-04-24 10:28 -34.84925 149.36678 35128 ft 473 kts 61°
2026-04-24 10:28 -34.83148 149.40052 34534 ft 472 kts 61°
2026-04-24 10:28 -34.81376 149.43412 33781 ft 472 kts 61°
2026-04-24 10:29 -34.79604 149.46769 33030 ft 471 kts 61°
2026-04-24 10:29 -34.77826 149.50133 32273 ft 471 kts 60°
2026-04-24 10:29 -34.76053 149.53485 31508 ft 471 kts 60°
2026-04-24 10:29 -34.74289 149.56816 30964 ft 466 kts 60°
2026-04-24 10:30 -34.72541 149.60113 30393 ft 461 kts 60°
2026-04-24 10:30 -34.70813 149.63369 29761 ft 456 kts 60°
2026-04-24 10:30 -34.69098 149.66600 29204 ft 450 kts 60°
2026-04-24 10:30 -34.67433 149.69733 28640 ft 445 kts 59°
2026-04-24 10:31 -34.65763 149.72875 28095 ft 440 kts 59°
2026-04-24 10:31 -34.64109 149.75982 27552 ft 435 kts 59°
2026-04-24 10:31 -34.62475 149.79051 27006 ft 431 kts 59°
2026-04-24 10:31 -34.60857 149.82088 26472 ft 427 kts 59°
2026-04-24 10:32 -34.59249 149.85102 25943 ft 423 kts 59°
2026-04-24 10:32 -34.57656 149.88086 25419 ft 420 kts 59°
2026-04-24 10:32 -34.56071 149.91053 24882 ft 417 kts 59°
2026-04-24 10:32 -34.54494 149.94001 24340 ft 415 kts 58°
2026-04-24 10:33 -34.52926 149.96930 23749 ft 413 kts 58°
2026-04-24 10:33 -34.51352 149.99870 23138 ft 420 kts 58°
2026-04-24 10:33 -34.49748 150.02864 22559 ft 426 kts 58°
2026-04-24 10:33 -34.48147 150.05848 22007 ft 428 kts 58°
2026-04-24 10:34 -34.46532 150.08854 21464 ft 423 kts 58°
2026-04-24 10:34 -34.44934 150.11824 20943 ft 418 kts 58°
2026-04-24 10:34 -34.43351 150.14765 20425 ft 415 kts 58°
2026-04-24 10:34 -34.41775 150.17691 19938 ft 413 kts 58°
2026-04-24 10:35 -34.40212 150.20593 19456 ft 410 kts 58°
2026-04-24 10:35 -34.38657 150.23477 18989 ft 407 kts 58°
2026-04-24 10:35 -34.37115 150.26333 18474 ft 404 kts 58°
2026-04-24 10:35 -34.35583 150.29169 17949 ft 401 kts 58°
2026-04-24 10:36 -34.34064 150.31981 17435 ft 397 kts 58°
2026-04-24 10:36 -34.32562 150.34759 16933 ft 393 kts 58°
2026-04-24 10:36 -34.31066 150.37524 16446 ft 390 kts 58°
2026-04-24 10:36 -34.29587 150.40253 15974 ft 387 kts 58°
2026-04-24 10:37 -34.28120 150.42962 15503 ft 383 kts 59°
2026-04-24 10:37 -34.26770 150.45723 15049 ft 379 kts 63°
2026-04-24 10:37 -34.25544 150.48490 14613 ft 376 kts 64°
2026-04-24 10:37 -34.24336 150.51279 14163 ft 373 kts 64°
2026-04-24 10:38 -34.23131 150.54042 13679 ft 370 kts 64°
2026-04-24 10:38 -34.21924 150.56774 13210 ft 367 kts 63°
2026-04-24 10:38 -34.20718 150.59476 12743 ft 364 kts 63°
2026-04-24 10:38 -34.19513 150.62160 12296 ft 362 kts 63°
2026-04-24 10:39 -34.18315 150.64823 11858 ft 359 kts 63°
2026-04-24 10:39 -34.17123 150.67470 11431 ft 357 kts 63°
2026-04-24 10:39 -34.15942 150.70094 11008 ft 354 kts 63°
2026-04-24 10:39 -34.14770 150.72697 10594 ft 351 kts 63°
2026-04-24 10:40 -34.13605 150.75285 10158 ft 349 kts 63°
2026-04-24 10:40 -34.12449 150.77851 9696 ft 343 kts 63°
2026-04-24 10:40 -34.11331 150.80326 9218 ft 329 kts 63°
2026-04-24 10:40 -34.10256 150.82705 8748 ft 317 kts 63°
2026-04-24 10:41 -34.09220 150.85004 8276 ft 307 kts 63°
2026-04-24 10:41 -34.08214 150.87240 7798 ft 299 kts 63°
2026-04-24 10:41 -34.07232 150.89423 7341 ft 293 kts 62°
2026-04-24 10:41 -34.06269 150.91562 6880 ft 287 kts 62°
2026-04-24 10:42 -34.05324 150.93663 6389 ft 282 kts 62°
2026-04-24 10:42 -34.04398 150.95715 6078 ft 272 kts 62°
2026-04-24 10:42 -34.03510 150.97681 6017 ft 262 kts 62°
2026-04-24 10:42 -34.02489 150.99432 5999 ft 257 kts 42°
2026-04-24 10:43 -34.00940 151.00396 6010 ft 252 kts 13°
2026-04-24 10:43 -33.99200 151.00348 6025 ft 251 kts 351°
2026-04-24 10:43 -33.97499 150.99886 6014 ft 250 kts 348°
2026-04-24 10:43 -33.95823 150.99385 5926 ft 246 kts 348°
2026-04-24 10:44 -33.94142 150.98878 5561 ft 251 kts 348°
2026-04-24 10:44 -33.92432 150.98362 5201 ft 256 kts 348°
2026-04-24 10:44 -33.90691 150.97837 4824 ft 260 kts 348°
2026-04-24 10:44 -33.88932 150.97307 4475 ft 258 kts 348°
2026-04-24 10:45 -33.87226 150.96790 4111 ft 246 kts 347°
2026-04-24 10:45 -33.85604 150.96512 4020 ft 226 kts
2026-04-24 10:45 -33.84093 150.96771 4014 ft 217 kts 12°
2026-04-24 10:45 -33.82613 150.97082 4007 ft 216 kts 12°
2026-04-24 10:46 -33.81128 150.97400 4006 ft 217 kts 13°
2026-04-24 10:46 -33.79639 150.97721 4006 ft 217 kts 12°
2026-04-24 10:46 -33.78154 150.98042 4006 ft 217 kts 13°
2026-04-24 10:46 -33.76705 150.98467 3992 ft 210 kts 29°
2026-04-24 10:47 -33.75683 150.99621 3930 ft 201 kts 64°
2026-04-24 10:47 -33.75159 151.01157 3644 ft 199 kts 72°
2026-04-24 10:47 -33.74693 151.02735 3256 ft 200 kts 72°
2026-04-24 10:47 -33.74229 151.04316 3057 ft 201 kts 72°
2026-04-24 10:48 -33.73764 151.05906 3014 ft 202 kts 72°
2026-04-24 10:48 -33.73356 151.07502 3005 ft 198 kts 85°
2026-04-24 10:48 -33.73643 151.09079 3009 ft 196 kts 122°
2026-04-24 10:48 -33.74584 151.10181 3012 ft 183 kts 141°
2026-04-24 10:49 -33.75572 151.11054 2997 ft 170 kts 142°
2026-04-24 10:49 -33.76504 151.11865 2999 ft 165 kts 142°
2026-04-24 10:49 -33.77426 151.12634 3090 ft 162 kts 148°
2026-04-24 10:49 -33.78463 151.13169 3116 ft 164 kts 158°
2026-04-24 10:50 -33.79550 151.13588 2917 ft 161 kts 162°
2026-04-24 10:50 -33.80608 151.13899 2666 ft 151 kts 164°
2026-04-24 10:50 -33.81615 151.14175 2407 ft 147 kts 164°
2026-04-24 10:50 -33.82611 151.14452 2169 ft 147 kts 165°
2026-04-24 10:51 -33.83613 151.14715 1936 ft 148 kts 165°
2026-04-24 10:51 -33.84605 151.14991 1760 ft 144 kts 164°
2026-04-24 10:51 -33.85595 151.15252 1573 ft 147 kts 166°
2026-04-24 10:51 -33.86591 151.15499 1372 ft 146 kts 165°
2026-04-24 10:52 -33.87576 151.15764 1132 ft 145 kts 165°
2026-04-24 10:52 -33.88560 151.16019 970 ft 144 kts 166°
2026-04-24 10:52 -33.89518 151.16277 769 ft 139 kts 168°
2026-04-24 10:52 -33.90489 151.16526 575 ft 143 kts 170°
2026-04-24 10:53 -33.91455 151.16774 357 ft 145 kts 169°
2026-04-24 10:53 -33.92451 151.17035 173 ft 144 kts 169°
2026-04-24 10:53 -33.93407 151.17283 27 ft 133 kts 169°
2026-04-24 10:53 -33.94165 151.17476 21 ft 81 kts 168°
2026-04-24 10:54 -33.94490 151.17564 24 ft 13 kts 165°
2026-04-24 10:54 -33.94532 151.17612 24 ft 10 kts 112°
2026-04-24 10:54 -33.94534 151.17662 23 ft 0 kts 83°
2026-04-24 10:54 -33.94533 151.17673 23 ft 0 kts 81°
2026-04-24 10:55 -33.94529 151.17700 25 ft 10 kts 78°
2026-04-24 10:55 -33.94513 151.17719 25 ft 6 kts 36°
2026-04-24 10:55 -33.94495 151.17755 24 ft 8 kts 57°
2026-04-24 10:55 -33.94437 151.17769 23 ft 6 kts 345°
2026-04-24 10:56 -33.94409 151.17760 23 ft 6 kts 345°
2026-04-24 10:56 -33.94346 151.17740 22 ft 8 kts 345°
2026-04-24 10:56 -33.94290 151.17720 21 ft 9 kts 343°
2026-04-24 10:56 -33.94233 151.17700 20 ft 8 kts 347°
2026-04-24 10:57 -33.94179 151.17686 21 ft 8 kts 348°
2026-04-24 10:57 -33.94117 151.17670 21 ft 13 kts 345°
2026-04-24 10:57 -33.94007 151.17638 20 ft 18 kts 347°
2026-04-24 10:57 -33.93883 151.17605 19 ft 18 kts 348°
2026-04-24 10:58 -33.93772 151.17577 17 ft 14 kts 346°
2026-04-24 10:58 -33.93709 151.17559 19 ft 14 kts 347°
2026-04-24 10:58 -33.93616 151.17536 16 ft 12 kts 349°
2026-04-24 10:58 -33.93538 151.17516 17 ft 11 kts 347°
2026-04-24 10:59 -33.93460 151.17501 19 ft 11 kts 358°
2026-04-24 10:59 -33.93385 151.17503 21 ft 11 kts 353°
2026-04-24 10:59 -33.93312 151.17486 20 ft 10 kts 348°
2026-04-24 10:59 -33.93242 151.17468 20 ft 10 kts 347°
2026-04-24 11:00 -33.93174 151.17450 21 ft 10 kts 348°
2026-04-24 11:00 -33.93112 151.17435 22 ft 7 kts 352°
2026-04-24 11:00 -33.93078 151.17467 26 ft 7 kts 69°
2026-04-24 11:00 -33.93063 151.17519 29 ft 7 kts 69°
2026-04-24 11:01 -33.93041 151.17567 29 ft 6 kts 56°
2026-04-24 11:01 -33.93014 151.17608 29 ft 6 kts 67°
2026-04-24 11:01 -33.93016 151.17659 29 ft 6 kts 109°
2026-04-24 11:01 -33.93033 151.17707 29 ft 6 kts 114°
2026-04-24 11:02 -33.93052 151.17751 30 ft 6 kts 116°
2026-04-24 11:02 -33.93062 151.17799 30 ft 6 kts 99°
2026-04-24 11:02 -33.93069 151.17847 30 ft 6 kts 101°
2026-04-24 11:02 -33.93076 151.17894 28 ft 6 kts 98°
2026-04-24 11:03 -33.93100 151.17926 30 ft 5 kts 174°
2026-04-24 11:03 -33.93133 151.17921 30 ft 3 kts 190°
2026-04-24 11:03 -33.93155 151.17915 28 ft 3 kts 191°
2026-04-24 11:03 -33.93160 151.17914 29 ft 0 kts 191°